Wind_Speed
123 109 98 101 99 80 81 84 92 87 71 79 81 80 77 77 77 75 74 75 74 72 71 68 68 70 70 69 67 66 63 61 65 65 68 70 69 68
129 119 109 100 96 93 81 77 87 87 80 76 87 85 85 83 77 75 76 78 75 74 74 72 71 68 70 70 67 63 60 62 64 65 66 66 65 68
136 129 125 117 112 98 81 83 96 92 81 77 76 85 82 80 80 77 74 75 74 73 70 67 67 69 70 70 72 66 63 65 65 66 67 68 67 67
145 137 133 128 120 107 97 97 96 93 79 69 73 71 86 83 85 84 79 75 74 72 71 68 68 69 71 69 68 67 68 68 70 71 70 69 67 68
151 148 142 135 127 122 105 110 82 89 83 77 73 69 70 78 82 78 76 74 75 73 73 74 71 71 71 70 71 75 76 76 78 74 72 73 74 74
154 155 151 144 134 134 131 135 119 99 97 88 86 80 80 76 76 76 82 85 84 82 79 78 74 72 74 76 75 80 83 82 81 80 80 77 78 81
156 160 159 153 148 146 140 135 133 128 117 120 116 103 96 89 85 78 75 80 81 79 79 80 80 77 77 80 83 85 84 83 84 83 81 83 84 83
157 161 166 162 154 155 150 141 137 133 129 134 115 116 112 105 99 93 93 89 86 88 85 84 81 78 80 82 85 86 85 86 88 88 86 86 85 85
155 162 167 169 164 159 156 149 142 138 136 131 129 124 126 116 110 112 105 95 93 95 89 83 78 78 81 83 87 90 91 89 87 86 85 85 86 87
155 156 166 169 170 165 159 158 155 144 143 138 133 128 127 114 119 118 114 111 106 100 98 97 97 92 92 93 92 92 90 87 87 86 87 87 89 91
151 157 158 167 171 170 165 163 158 156 147 141 140 133 127 122 120 120 119 113 108 104 103 98 95 97 98 94 91 93 92 90 89 90 89 92 95 96
133 153 159 160 167 172 171 164 161 161 152 143 142 141 135 127 122 123 121 115 110 108 104 102 101 102 100 96 96 97 94 92 93 94 94 95 98 100
123 134 155 161 163 166 170 172 162 156 153 153 145 143 142 135 128 123 117 116 113 110 107 108 106 105 103 99 99 98 98 97 97 96 96 97 98 103
118 124 135 152 160 163 163 164 161 157 159 153 153 153 145 139 130 126 121 117 113 111 110 111 108 107 105 102 100 102 100 100 98 98 98 100 103 104
115 117 125 133 148 156 158 155 158 159 160 156 154 156 149 140 137 126 121 120 117 113 111 109 106 107 108 104 103 104 104 102 100 101 101 103 107 105
109 115 117 124 131 143 149 150 153 157 159 155 149 147 149 140 138 128 126 122 120 117 114 110 108 106 108 108 107 108 106 104 105 105 105 107 108 108
96 106 112 115 121 127 138 144 148 152 150 155 149 143 141 137 134 129 126 124 124 119 116 113 112 110 113 111 110 110 109 108 109 108 108 110 111 109
86 93 103 111 113 118 125 136 142 146 145 147 145 138 133 132 125 126 123 123 124 121 118 116 115 116 114 112 111 112 111 111 110 109 112 112 111 111
72 80 90 98 108 113 119 124 133 138 140 143 140 136 134 128 123 123 121 121 119 119 118 118 117 115 115 113 115 113 111 111 109 112 115 111 114 110
63 69 77 86 95 104 110 112 120 129 135 138 136 132 131 130 129 127 125 123 117 114 113 113 114 113 109 111 114 113 111 110 113 115 110 115 114 112
54 59 65 72 80 90 98 106 112 120 126 128 129 128 128 127 127 129 125 120 115 110 108 109 112 110 110 109 109 111 112 112 114 114 115 115 115 113
45 51 56 62 67 75 84 95 107 110 114 118 121 123 123 121 128 124 118 114 112 110 107 106 111 109 108 110 112 112 113 114 114 115 115 114 111 113
40 44 49 54 60 66 75 87 92 102 113 116 114 119 123 127 122 118 111 109 110 106 104 107 114 111 112 111 112 112 112 114 113 115 114 111 115 113
Wind_Direction
212 212 213 212 216 220 226 233 234 242 238 239 239 242 244 245 244 244 247 250 252 253 257 259 258 261 262 263 265 267 272 281 281 282 281 282 285 286
212 210 211 212 215 225 228 230 235 236 240 237 239 239 242 242 242 245 248 252 253 252 254 257 259 262 263 265 264 266 275 280 282 283 284 285 284 285
211 209 213 214 219 223 220 225 225 231 232 236 235 236 236 239 240 241 243 245 247 251 254 257 260 265 265 263 262 264 274 279 284 283 285 287 288 288
210 210 214 214 218 221 217 221 231 227 229 230 235 238 239 241 244 247 248 247 250 252 254 259 261 264 266 263 259 264 275 282 284 284 282 283 285 286
209 212 214 213 217 221 218 230 221 217 221 222 230 237 241 244 244 245 245 246 252 256 255 260 261 264 263 260 259 267 275 281 282 283 284 283 285 287
212 212 215 216 215 222 223 227 224 221 226 227 231 237 241 245 246 242 245 252 254 257 259 261 259 263 263 261 264 271 276 280 282 282 284 286 287 288
212 213 215 218 217 220 225 230 230 231 231 232 232 234 235 241 242 245 246 248 253 256 257 259 258 262 262 264 267 272 277 278 280 282 284 286 287 289
215 214 215 218 219 221 224 229 232 232 230 238 232 236 236 236 236 244 246 250 256 257 257 258 259 260 261 265 268 271 272 275 278 280 282 284 285 287
218 216 217 218 221 222 224 227 231 231 231 236 236 240 241 239 240 240 244 248 251 253 256 255 258 259 261 264 266 268 271 275 278 279 281 283 285 287
219 218 218 219 221 223 225 227 228 230 231 233 236 238 241 244 245 245 247 248 249 253 255 257 262 264 265 265 267 271 274 275 276 278 281 283 285 285
217 219 219 220 220 223 225 228 228 230 231 232 235 237 239 240 243 245 247 249 250 252 255 258 260 262 265 267 269 271 272 275 278 279 281 283 285 287
218 218 219 221 222 223 225 228 230 230 231 232 235 236 238 239 240 245 246 248 251 253 255 257 258 261 263 265 268 270 273 276 277 280 281 283 285 287
220 218 218 220 223 224 224 226 229 232 233 232 234 236 238 240 240 242 246 249 250 252 255 257 258 260 262 265 268 271 273 275 277 280 282 284 286 288
221 219 218 220 222 224 225 225 227 230 232 232 234 236 237 240 241 242 243 246 249 251 253 256 258 261 263 264 267 269 272 275 278 280 282 284 286 287
221 221 219 220 221 224 226 225 226 229 231 230 234 235 237 239 240 242 245 246 248 250 252 256 258 261 264 266 268 270 272 276 279 280 283 285 286 287
221 221 221 221 221 222 225 227 227 228 231 232 230 235 237 237 240 240 241 245 247 250 252 254 257 259 263 265 267 270 273 275 277 279 281 283 285 287
223 222 222 222 222 222 224 226 227 230 231 233 233 231 235 238 240 242 242 243 245 248 251 253 256 258 260 263 266 269 272 274 276 278 280 282 284 286
223 223 222 222 222 221 223 225 227 228 231 234 234 235 235 236 239 242 244 245 246 247 250 252 255 257 260 263 265 267 270 272 275 277 279 280 283 285
223 223 223 222 222 221 221 224 226 228 230 233 237 236 236 238 239 241 244 246 247 249 250 252 254 257 260 263 265 267 269 271 274 275 276 281 282 286
222 222 222 222 222 222 222 221 224 227 229 231 235 235 237 238 238 239 242 245 247 248 251 254 256 257 260 260 265 267 270 272 274 276 279 278 283 285
221 221 221 220 220 221 221 220 219 223 229 229 232 234 235 237 239 239 240 242 245 247 250 253 255 257 258 260 263 266 269 271 273 276 279 281 284 286
217 218 218 218 218 218 218 219 220 220 223 227 229 231 233 234 238 238 238 241 244 247 249 251 254 257 259 262 263 266 268 271 273 276 278 281 284 287
218 217 215 215 215 214 214 217 219 218 219 223 225 228 232 232 235 239 239 241 243 245 248 252 257 259 259 262 264 266 268 270 273 275 278 282 282 286
Height
10466 10485 10497 10507 10518 10528 10535 10540 10544 10552 10565 10576 10585 10590 10596 10603 10609 10618 10624 10628 10635 10642 10647 10650 10655 10657 10660 10663 10665 10667 10668 10666 10666 10666 10665 10665 10664 10663
10440 10459 10474 10485 10497 10507 10520 10523 10526 10537 10549 10558 10565 10570 10577 10587 10596 10603 10608 10612 10619 10624 10629 10634 10640 10645 10648 10649 10650 10653 10654 10653 10651 10650 10649 10648 10649 10648
10415 10432 10448 10462 10476 10489 10499 10501 10503 10517 10532 10537 10544 10548 10560 10570 10578 10585 10592 10595 10601 10608 10614 10620 10626 10629 10632 10634 10636 10639 10640 10639 10640 10639 10636 10633 10632 10631
10389 10407 10420 10436 10450 10467 10474 10481 10490 10499 10512 10520 10520 10527 10544 10553 10559 10567 10577 10584 10588 10593 10600 10606 10610 10614 10616 10619 10621 10623 10623 10623 10625 10625 10623 10621 10619 10616
10358 10379 10392 10407 10426 10440 10457 10454 10469 10481 10492 10499 10503 10511 10520 10531 10545 10554 10561 10569 10572 10576 10583 10587 10593 10597 10601 10604 10606 10607 10608 10609 10610 10609 10607 10606 10603 10600
10329 10348 10365 10383 10403 10411 10421 10424 10442 10460 10473 10481 10486 10498 10506 10512 10522 10536 10547 10551 10555 10560 10566 10572 10578 10581 10584 10588 10591 10591 10592 10592 10593 10593 10592 10590 10586 10584
10300 10320 10337 10353 10369 10382 10397 10405 10424 10442 10459 10455 10465 10479 10494 10499 10514 10518 10521 10527 10535 10543 10549 10555 10558 10565 10569 10572 10573 10574 10575 10577 10577 10577 10575 10573 10571 10567
10273 10291 10308 10325 10340 10356 10371 10382 10396 10416 10433 10423 10452 10462 10470 10484 10493 10502 10507 10514 10521 10523 10529 10536 10543 10550 10552 10556 10556 10558 10560 10560 10561 10561 10559 10557 10555 10551
10240 10262 10280 10296 10311 10328 10343 10357 10371 10388 10403 10415 10427 10443 10448 10468 10478 10485 10494 10499 10504 10502 10513 10522 10530 10534 10536 10537 10538 10539 10542 10545 10546 10543 10542 10540 10538 10533
10205 10228 10251 10268 10286 10299 10317 10330 10343 10362 10379 10401 10409 10421 10430 10448 10448 10459 10468 10475 10487 10496 10504 10511 10511 10512 10514 10517 10519 10522 10525 10526 10528 10526 10524 10523 10520 10515
10170 10195 10220 10239 10257 10274 10293 10301 10325 10338 10355 10374 10388 10399 10406 10422 10425 10432 10441 10458 10474 10481 10482 10488 10491 10490 10493 10499 10502 10503 10505 10508 10508 10507 10506 10504 10500 10495
10147 10168 10191 10211 10226 10243 10263 10278 10292 10316 10336 10353 10360 10372 10383 10398 10408 10410 10425 10440 10453 10459 10469 10470 10468 10470 10475 10479 10481 10484 10488 10489 10488 10487 10487 10484 10479 10474
10113 10134 10158 10177 10193 10211 10234 10253 10281 10297 10305 10326 10335 10346 10358 10371 10385 10397 10412 10420 10432 10442 10444 10442 10448 10449 10457 10462 10463 10467 10468 10468 10468 10468 10466 10463 10458 10455
10084 10106 10128 10146 10163 10179 10202 10235 10257 10265 10275 10297 10308 10316 10334 10353 10371 10379 10394 10400 10409 10415 10421 10423 10433 10435 10437 10442 10444 10446 10449 10448 10449 10449 10447 10443 10438 10436
10057 10079 10100 10116 10135 10152 10178 10206 10226 10231 10243 10269 10280 10292 10318 10335 10344 10362 10374 10379 10389 10395 10403 10409 10415 10415 10414 10422 10424 10425 10425 10428 10430 10428 10427 10422 10416 10415
10035 10053 10072 10092 10112 10131 10150 10174 10193 10204 10219 10242 10265 10274 10288 10307 10318 10341 10353 10358 10364 10372 10384 10391 10396 10398 10399 10400 10403 10405 10406 10410 10409 10408 10405 10401 10396 10393
10015 10033 10052 10071 10090 10111 10129 10147 10166 10179 10196 10210 10233 10258 10264 10283 10302 10314 10326 10337 10344 10355 10362 10369 10374 10380 10377 10381 10384 10386 10388 10389 10387 10386 10383 10379 10376 10372
9996 10010 10027 10044 10064 10085 10103 10119 10139 10158 10177 10188 10210 10228 10255 10266 10282 10289 10302 10312 10321 10334 10342 10348 10353 10354 10358 10362 10365 10366 10368 10367 10367 10365 10359 10357 10355 10351
9982 9993 10006 10022 10039 10058 10077 10098 10116 10137 10159 10168 10182 10209 10226 10246 10261 10269 10278 10284 10299 10310 10320 10326 10331 10336 10339 10341 10338 10343 10345 10347 10347 10340 10338 10339 10332 10330
9966 9977 9988 10002 10018 10036 10057 10081 10101 10117 10132 10148 10156 10184 10201 10216 10232 10243 10253 10262 10277 10288 10297 10303 10308 10314 10320 10318 10316 10320 10323 10324 10320 10316 10319 10311 10311 10309
9954 9964 9975 9987 10001 10017 10037 10059 10081 10095 10105 10126 10141 10161 10177 10189 10200 10211 10227 10242 10256 10268 10276 10281 10280 10288 10292 10298 10303 10301 10300 10300 10297 10295 10293 10290 10289 10283
9943 9952 9962 9974 9986 10001 10018 10035 10051 10074 10089 10104 10122 10137 10151 10164 10167 10188 10209 10225 10236 10242 10254 10259 10256 10264 10271 10273 10276 10278 10278 10278 10276 10274 10270 10269 10268 10262
9935 9942 9951 9961 9973 9986 10000 10010 10031 10051 10067 10081 10099 10114 10122 10129 10151 10164 10187 10201 10211 10222 10232 10236 10233 10239 10244 10248 10250 10252 10255 10254 10251 10252 10251 10251 10246 10245